Location: downtown San Diego
(32.7310°N, 117.1990°W)
Time: 22:39:46
(UTC-07:00)

Cosmos 2221 - Pass Details

Date: 12 July 2018
Orbit: 594 x 615 km, 82.5° (Epoch: 20 September)

Event Time Altitude Azimuth Distance (km) Brightness Sun altitude
Rises 20:51:57 0° 342° (NNW) 2,838 6.9 -10.5°
Reaches altitude 10° 20:54:19 10° 333° (NNW) 1,931 6.2 -10.9°
Maximum altitude 20:58:08 33° 269° (W) 999 4.2 -11.5°
Drops below altitude 10° 21:01:58 10° 205° (SSW) 1,921 5.0 -12.2°
Sets 21:04:18 0° 195° (SSW) 2,820 5.7 -12.6°
